Powrót do katalogu

IRIDIUM 33 DEB

AktywnyPO
NORAD 35797·DEBRIS·🇺🇸 United States

Wystrzelony Sep 14, 1997 z Baikonur Cosmodrome

Loading…

Następne Przeloty (najbliższe 24 godziny)

TLE

ŚwieżeSource: Space-Track

Epoka: Sep 14, 2026, 14:09 UTC

1 35797U 97051SF  26257.58969419  .00010260  00000-0  10636-2 0  9993
2 35797  86.3370 202.3919 0006474 273.9899  86.0588 14.89892608914390

Śledź IRIDIUM 33 DEB w czasie rzeczywistym z AllMySat

Download on the App Store